User: anonymous   Login
Location: Slidell
(30.2789°N, 89.7378°W)
Time: 17:15:19
(UTC-05:00)
Language:

Cosmos 2360 Rocket - Orbit

View from above orbital plane
View from above orbital plane
View from above satellite
View from above satellite

Ground track
Ground track

The orbit data is extracted from the following two-line orbital elements,

1 25407U 98045B   15213.51218123 -.00000166  00000-0 -60441-4 0  9993
2 25407 071.0097 042.3072 0007862 187.7846 172.3156 14.15718566879133
Epoch (UTC): 01 August 2015 12:17:32
Eccentricity: 0.0007862
inclination: 71.0097°
perigee height: 834 km
apogee height: 845 km
right ascension of ascending node: 42.3072°
argument of perigee: 187.7846°
revolutions per day: 14.15718566
mean anomaly at epoch: 172.3156°
orbit number at epoch: 87913

The dashed part of the orbit path shows where the satellite is in the earth's shadow,  

DLR